| time (UTC) | temp F | wind direction | speed MPH | gust MPH | rain 1hr in | rain 24hr in | rain mn in | humidity % | barometer mb |
| 20260506073403 | 78 | 144 | 4.0 | 6.0 | 0.00 | 0.00 | 0.00 | 93 | 1002.1 |
| 20260506072900 | 78 | 136 | 2.0 | 3.0 | 0.00 | 0.00 | 0.00 | 93 | 1002.1 |
| 20260506072357 | 78 | 147 | 4.0 | 4.0 | 0.00 | 0.00 | 0.00 | 93 | 1002.1 |
| 20260506071854 | 78 | 179 | 0.0 | 1.0 | 0.00 | 0.00 | 0.00 | 93 | 1002.1 |
| 20260506071353 | 78 | 135 | 2.0 | 3.0 | 0.00 | 0.00 | 0.00 | 93 | 1002.4 |
| 20260506070849 | 78 | 177 | 1.0 | 1.0 | 0.00 | 0.00 | 0.00 | 93 | 1002.6 |
| 20260506070346 | 78 | 116 | 2.0 | 3.0 | 0.00 | 0.00 | 0.00 | 93 | 1002.7 |
| 20260506062323 | 78 | 192 | 2.0 | 2.0 | 0.00 | 0.00 | 0.00 | 95 | 1003.1 |
| 20260506061819 | 78 | 196 | 1.0 | 1.0 | 0.00 | 0.00 | 0.00 | 95 | 1003.2 |
| 20260506061316 | 78 | 61 | 0.0 | 1.0 | 0.00 | 0.00 | 0.00 | 95 | 1003.1 |
| 20260506060814 | 78 | 261 | 0.0 | 0.0 | 0.00 | 0.00 | 0.00 | 95 | 1002.9 |
| 20260506060312 | 78 | 182 | 0.0 | 1.0 | 0.00 | 0.00 | 0.00 | 95 | 1002.9 |
| 20260506051244 | 78 | 200 | 1.0 | 2.0 | 0.00 | 0.00 | 0.00 | 95 | 1003.2 |
| 20260506050742 | 78 | 130 | 2.0 | 3.0 | 0.00 | 0.00 | 0.00 | 95 | 1003.1 |
| 20260506050239 | 78 | 160 | 4.0 | 6.0 | 0.00 | 0.00 | 0.00 | 95 | 1003.2 |
| 20260506044730 | 78 | 197 | 3.0 | 3.0 | 0.00 | 0.00 | 0.00 | 95 | 1003.3 |
| 20260506044227 | 78 | 146 | 1.0 | 2.0 | 0.00 | 0.00 | 0.00 | 95 | 1003.4 |
| 20260506043724 | 78 | 195 | 0.0 | 1.0 | 0.00 | 0.00 | 0.00 | 95 | 1003.4 |
| 20260506043222 | 78 | 156 | 2.0 | 3.0 | 0.00 | 0.00 | 0.00 | 95 | 1003.2 |
| 20260506042720 | 78 | 150 | 1.0 | 2.0 | 0.00 | 0.00 | 0.00 | 95 | 1003.0 |
| 20260506042218 | 78 | 177 | 3.0 | 3.0 | 0.00 | 0.00 | 0.00 | 95 | 1002.9 |
| 20260506041716 | 78 | 194 | 4.0 | 7.0 | 0.00 | 0.00 | 0.00 | 95 | 1003.2 |
| 20260506041213 | 78 | 181 | 1.0 | 1.0 | 0.00 | 0.00 | 0.00 | 95 | 1003.3 |
| 20260506040711 | 78 | 161 | 3.0 | 4.0 | 0.00 | 0.00 | 0.00 | 95 | 1003.2 |
| 20260506040207 | 79 | 199 | 0.0 | 1.0 | 0.00 | 0.00 | 0.00 | 95 | 1003.0 |
| 20260506035704 | 79 | 202 | 0.0 | 1.0 | 0.00 | 0.00 | 0.00 | 95 | 1003.1 |
| 20260506035200 | 79 | 184 | 2.0 | 2.0 | 0.00 | 0.00 | 0.00 | 95 | 1003.0 |
| 20260506034652 | 78 | 161 | 4.0 | 7.0 | 0.00 | 0.00 | 0.00 | 95 | 1002.9 |
| 20260506034149 | 78 | 188 | 1.0 | 2.0 | 0.00 | 0.00 | 0.00 | 95 | 1002.7 |
| 20260506033647 | 78 | 169 | 3.0 | 4.0 | 0.00 | 0.00 | 0.00 | 95 | 1002.8 |
| 20260506033143 | 78 | 184 | 2.0 | 3.0 | 0.00 | 0.00 | 0.00 | 95 | 1002.7 |
| 20260506032641 | 78 | 172 | 2.0 | 3.0 | 0.00 | 0.00 | 0.00 | 95 | 1002.5 |
| 20260506032137 | 78 | 168 | 4.0 | 6.0 | 0.00 | 0.00 | 0.00 | 95 | 1002.6 |
| 20260506031634 | 78 | 152 | 4.0 | 7.0 | 0.00 | 0.00 | 0.00 | 95 | 1002.3 |
| 20260506031131 | 78 | 201 | 5.0 | 11.0 | 0.00 | 0.00 | 0.00 | 95 | 1002.5 |
| 20260506030630 | 78 | 205 | 1.0 | 1.0 | 0.00 | 0.00 | 0.00 | 95 | 1002.4 |
| 20260506030127 | 78 | 131 | 3.0 | 3.0 | 0.00 | 0.00 | 0.00 | 95 | 1002.3 |
| 20260506025623 | 78 | 83 | 2.0 | 3.0 | 0.00 | 0.00 | 0.00 | 95 | 1002.3 |
| 20260506025119 | 78 | 166 | 6.0 | 9.0 | 0.00 | 0.00 | 0.00 | 95 | 1002.2 |
| 20260506024617 | 78 | 201 | 1.0 | 1.0 | 0.00 | 0.00 | 0.00 | 95 | 1002.2 |
| 20260506024113 | 78 | 165 | 2.0 | 3.0 | 0.00 | 0.00 | 0.00 | 95 | 1002.2 |
| 20260506023609 | 78 | 181 | 3.0 | 3.0 | 0.00 | 0.00 | 0.00 | 95 | 1002.4 |
| 20260506023107 | 78 | 91 | 3.0 | 6.0 | 0.00 | 0.00 | 0.00 | 95 | 1002.0 |
| 20260506022604 | 78 | 178 | 3.0 | 7.0 | 0.00 | 0.00 | 0.00 | 95 | 1002.0 |
| 20260506022101 | 78 | 191 | 2.0 | 3.0 | 0.00 | 0.00 | 0.00 | 95 | 1001.9 |
| 20260506021558 | 78 | 182 | 2.0 | 2.0 | 0.00 | 0.00 | 0.00 | 95 | 1002.1 |
| 20260506021050 | 78 | 195 | 1.0 | 1.0 | 0.00 | 0.00 | 0.00 | 94 | 1002.0 |
| 20260506020547 | 78 | 189 | 4.0 | 4.0 | 0.00 | 0.00 | 0.00 | 94 | 1001.7 |
| 20260506020045 | 78 | 184 | 2.0 | 3.0 | 0.00 | 0.00 | 0.00 | 94 | 1001.7 |
| 20260506015542 | 78 | 190 | 2.0 | 2.0 | 0.00 | 0.00 | 0.00 | 94 | 1001.6 |
| 20260506015039 | 78 | 150 | 2.0 | 2.0 | 0.00 | 0.00 | 0.00 | 94 | 1001.5 |
| 20260506014536 | 78 | 153 | 7.0 | 11.0 | 0.00 | 0.00 | 0.00 | 94 | 1001.7 |
| 20260506014032 | 78 | 215 | 4.0 | 6.0 | 0.00 | 0.00 | 0.00 | 94 | 1001.6 |
| 20260506013531 | 78 | 172 | 2.0 | 3.0 | 0.00 | 0.00 | 0.00 | 94 | 1001.5 |
| 20260506013027 | 78 | 136 | 2.0 | 4.0 | 0.00 | 0.00 | 0.00 | 94 | 1001.4 |
| 20260506012523 | 79 | 196 | 2.0 | 2.0 | 0.00 | 0.00 | 0.00 | 94 | 1001.2 |
| 20260506012020 | 79 | 198 | 2.0 | 4.0 | 0.00 | 0.00 | 0.00 | 93 | 1001.3 |
| 20260506011517 | 79 | 197 | 2.0 | 2.0 | 0.00 | 0.00 | 0.00 | 93 | 1001.3 |
| 20260506011013 | 79 | 197 | 1.0 | 2.0 | 0.00 | 0.00 | 0.00 | 93 | 1001.2 |
| 20260506010508 | 79 | 121 | 1.0 | 2.0 | 0.00 | 0.00 | 0.00 | 93 | 1001.2 |
| 20260506010003 | 79 | 172 | 1.0 | 2.0 | 0.00 | 0.00 | 0.00 | 93 | 1001.1 |
| 20260506005501 | 79 | 184 | 2.0 | 3.0 | 0.00 | 0.00 | 0.00 | 92 | 1001.1 |
| 20260506004956 | 79 | 178 | 2.0 | 2.0 | 0.00 | 0.00 | 0.00 | 93 | 1001.1 |
| 20260506004454 | 79 | 104 | 4.0 | 8.0 | 0.00 | 0.00 | 0.00 | 92 | 1001.3 |
| 20260506003950 | 79 | 151 | 5.0 | 7.0 | 0.00 | 0.00 | 0.00 | 92 | 1000.9 |
| 20260506003447 | 80 | 172 | 3.0 | 7.0 | 0.00 | 0.00 | 0.00 | 92 | 1001.1 |
| 20260506002943 | 80 | 179 | 2.0 | 6.0 | 0.00 | 0.00 | 0.00 | 92 | 1001.0 |
| 20260506002439 | 80 | 121 | 4.0 | 8.0 | 0.00 | 0.00 | 0.00 | 91 | 1000.9 |
| 20260506001934 | 80 | 160 | 4.0 | 6.0 | 0.00 | 0.00 | 0.00 | 91 | 1001.0 |
| 20260506001432 | 80 | 186 | 5.0 | 9.0 | 0.00 | 0.00 | 0.00 | 91 | 1000.9 |
| 20260506000929 | 80 | 174 | 0.0 | 1.0 | 0.00 | 0.00 | 0.00 | 90 | 1001.0 |
| 20260506000426 | 81 | 131 | 3.0 | 6.0 | 0.00 | 0.00 | 0.00 | 90 | 1000.9 |
| 20260505235923 | 81 | 210 | 4.0 | 6.0 | 0.00 | 0.00 | 0.00 | 90 | 1000.8 |
| 20260505235421 | 80 | 199 | 1.0 | 2.0 | 0.00 | 0.00 | 0.00 | 90 | 1000.8 |
| 20260505234918 | 81 | 207 | 6.0 | 11.0 | 0.00 | 0.00 | 0.00 | 89 | 1000.7 |
| 20260505234416 | 81 | 184 | 1.0 | 2.0 | 0.00 | 0.00 | 0.00 | 88 | 1000.8 |
| 20260505233912 | 81 | 181 | 6.0 | 9.0 | 0.00 | 0.00 | 0.00 | 88 | 1000.6 |
| 20260505233410 | 82 | 188 | 3.0 | 8.0 | 0.00 | 0.00 | 0.00 | 88 | 1000.7 |
| 20260505232907 | 82 | 141 | 4.0 | 6.0 | 0.00 | 0.00 | 0.00 | 88 | 1000.5 |
| 20260505232405 | 82 | 240 | 2.0 | 3.0 | 0.00 | 0.00 | 0.00 | 87 | 1000.4 |
| 20260505231901 | 82 | 89 | 7.0 | 9.0 | 0.00 | 0.00 | 0.00 | 87 | 1000.5 |
| 20260505231359 | 83 | 117 | 3.0 | 4.0 | 0.00 | 0.00 | 0.00 | 86 | 1000.5 |
| 20260505230857 | 82 | 194 | 3.0 | 6.0 | 0.00 | 0.00 | 0.00 | 86 | 1000.6 |
| 20260505230354 | 83 | 197 | 4.0 | 6.0 | 0.00 | 0.00 | 0.00 | 85 | 1000.4 |
| 20260505225850 | 83 | 179 | 4.0 | 8.0 | 0.00 | 0.00 | 0.00 | 86 | 1000.7 |
| 20260505225348 | 82 | 86 | 5.0 | 8.0 | 0.00 | 0.00 | 0.00 | 86 | 1000.5 |
| 20260505224843 | 83 | 195 | 4.0 | 6.0 | 0.00 | 0.00 | 0.00 | 85 | 1000.7 |
| 20260505224341 | 83 | 184 | 2.0 | 2.0 | 0.00 | 0.00 | 0.00 | 85 | 1000.6 |
| 20260505223838 | 83 | 86 | 6.0 | 10.0 | 0.00 | 0.00 | 0.00 | 84 | 1000.3 |
| 20260505223335 | 82 | 203 | 6.0 | 9.0 | 0.00 | 0.00 | 0.00 | 85 | 1000.6 |
| 20260505222830 | 83 | 170 | 2.0 | 3.0 | 0.00 | 0.00 | 0.00 | 84 | 1000.6 |
| 20260505222327 | 83 | 202 | 4.0 | 8.0 | 0.00 | 0.00 | 0.00 | 84 | 1000.7 |
| 20260505221824 | 84 | 181 | 4.0 | 4.0 | 0.00 | 0.00 | 0.00 | 83 | 1000.5 |
| 20260505221321 | 85 | 168 | 6.0 | 9.0 | 0.00 | 0.00 | 0.00 | 82 | 1000.6 |
| 20260505220818 | 84 | 38 | 4.0 | 6.0 | 0.00 | 0.00 | 0.00 | 82 | 1000.9 |
| 20260505220315 | 85 | 195 | 4.0 | 7.0 | 0.00 | 0.00 | 0.00 | 81 | 1000.7 |
| 20260505215813 | 85 | 165 | 5.0 | 8.0 | 0.00 | 0.00 | 0.00 | 81 | 1000.8 |
| 20260505215310 | 85 | 146 | 4.0 | 7.0 | 0.00 | 0.00 | 0.00 | 81 | 1001.0 |
| 20260505214808 | 85 | 192 | 5.0 | 7.0 | 0.00 | 0.00 | 0.00 | 81 | 1000.8 |
| 20260505214305 | 85 | 200 | 4.0 | 6.0 | 0.00 | 0.00 | 0.00 | 81 | 1000.7 |
| 20260505213802 | 86 | 134 | 2.0 | 3.0 | 0.00 | 0.00 | 0.00 | 80 | 1001.0 |
| 20260505213300 | 85 | 145 | 6.0 | 8.0 | 0.00 | 0.00 | 0.00 | 80 | 1001.0 |
| 20260505212755 | 84 | 139 | 4.0 | 6.0 | 0.00 | 0.00 | 0.00 | 81 | 1001.2 |
| 20260505212253 | 85 | 175 | 4.0 | 8.0 | 0.00 | 0.00 | 0.00 | 81 | 1001.3 |
| 20260505211749 | 85 | 179 | 3.0 | 6.0 | 0.00 | 0.00 | 0.00 | 81 | 1001.3 |
| 20260505211247 | 85 | 97 | 4.0 | 6.0 | 0.00 | 0.00 | 0.00 | 81 | 1001.3 |
| 20260505210743 | 85 | 170 | 4.0 | 6.0 | 0.00 | 0.00 | 0.00 | 81 | 1001.2 |
| 20260505210240 | 86 | 153 | 5.0 | 7.0 | 0.00 | 0.00 | 0.00 | 79 | 1001.5 |
| 20260505205737 | 85 | 192 | 4.0 | 7.0 | 0.00 | 0.00 | 0.00 | 80 | 1001.4 |
| 20260505205236 | 87 | 197 | 7.0 | 11.0 | 0.00 | 0.00 | 0.00 | 78 | 1001.6 |
| 20260505204732 | 88 | 157 | 3.0 | 3.0 | 0.00 | 0.00 | 0.00 | 75 | 1001.6 |
| 20260505204230 | 87 | 176 | 3.0 | 6.0 | 0.00 | 0.00 | 0.00 | 78 | 1001.7 |
| 20260505203727 | 86 | 191 | 2.0 | 2.0 | 0.00 | 0.00 | 0.00 | 80 | 1001.7 |
| 20260505203224 | 86 | 189 | 2.0 | 3.0 | 0.00 | 0.00 | 0.00 | 79 | 1002.0 |
| 20260505202719 | 85 | 150 | 2.0 | 4.0 | 0.00 | 0.00 | 0.00 | 81 | 1002.1 |
| 20260505202216 | 86 | 115 | 4.0 | 7.0 | 0.00 | 0.00 | 0.00 | 79 | 1002.1 |
| 20260505201712 | 85 | 205 | 2.0 | 4.0 | 0.00 | 0.00 | 0.00 | 80 | 1002.2 |
| 20260505201210 | 85 | 191 | 2.0 | 2.0 | 0.00 | 0.00 | 0.00 | 80 | 1002.4 |
| 20260505200708 | 85 | 181 | 4.0 | 7.0 | 0.00 | 0.00 | 0.00 | 80 | 1002.4 |
| 20260505200205 | 85 | 175 | 3.0 | 4.0 | 0.00 | 0.00 | 0.00 | 81 | 1002.4 |
| 20260505195701 | 86 | 202 | 4.0 | 8.0 | 0.00 | 0.00 | 0.00 | 81 | 1002.4 |
| 20260505195158 | 86 | 214 | 2.0 | 2.0 | 0.00 | 0.00 | 0.00 | 80 | 1002.4 |
| 20260505194655 | 86 | 190 | 2.0 | 4.0 | 0.00 | 0.00 | 0.00 | 79 | 1002.4 |
| 20260505194151 | 86 | 164 | 2.0 | 4.0 | 0.00 | 0.00 | 0.00 | 79 | 1002.5 |
| 20260505193648 | 86 | 164 | 4.0 | 6.0 | 0.00 | 0.00 | 0.00 | 80 | 1002.4 |
| 20260505193145 | 86 | 172 | 2.0 | 3.0 | 0.00 | 0.00 | 0.00 | 79 | 1002.5 |
| 20260505192644 | 86 | 136 | 6.0 | 11.0 | 0.00 | 0.00 | 0.00 | 79 | 1002.5 |
| 20260505192141 | 87 | 171 | 4.0 | 4.0 | 0.00 | 0.00 | 0.00 | 79 | 1002.7 |
| 20260505191639 | 86 | 188 | 2.0 | 2.0 | 0.00 | 0.00 | 0.00 | 79 | 1002.5 |
| 20260505191137 | 85 | 164 | 4.0 | 6.0 | 0.00 | 0.00 | 0.00 | 80 | 1002.6 |
| 20260505190632 | 85 | 126 | 4.0 | 10.0 | 0.00 | 0.00 | 0.00 | 80 | 1002.6 |
| 20260505190127 | 85 | 206 | 3.0 | 6.0 | 0.00 | 0.00 | 0.00 | 80 | 1002.5 |
| 20260505185624 | 86 | 197 | 2.0 | 3.0 | 0.00 | 0.00 | 0.00 | 78 | 1002.7 |
| 20260505185120 | 86 | 107 | 4.0 | 6.0 | 0.00 | 0.00 | 0.00 | 79 | 1002.7 |
| 20260505184617 | 86 | 103 | 3.0 | 3.0 | 0.00 | 0.00 | 0.00 | 81 | 1003.0 |
| 20260505184114 | 85 | 189 | 0.0 | 2.0 | 0.00 | 0.00 | 0.00 | 81 | 1002.8 |
| 20260505183611 | 85 | 178 | 2.0 | 3.0 | 0.00 | 0.00 | 0.00 | 82 | 1002.8 |
| 20260505183109 | 85 | 192 | 1.0 | 1.0 | 0.00 | 0.00 | 0.00 | 81 | 1002.9 |
| 20260505182604 | 85 | 170 | 5.0 | 7.0 | 0.00 | 0.00 | 0.00 | 81 | 1003.2 |
| 20260505182102 | 84 | 193 | 4.0 | 6.0 | 0.00 | 0.00 | 0.00 | 81 | 1002.7 |
| 20260505181558 | 84 | 207 | 1.0 | 2.0 | 0.00 | 0.00 | 0.00 | 82 | 1002.8 |
| 20260505181055 | 84 | 138 | 2.0 | 2.0 | 0.00 | 0.00 | 0.00 | 83 | 1003.1 |
| 20260505180551 | 84 | 186 | 3.0 | 3.0 | 0.00 | 0.00 | 0.00 | 82 | 1003.1 |
| 20260505180049 | 84 | 176 | 2.0 | 4.0 | 0.00 | 0.00 | 0.00 | 82 | 1003.2 |
| 20260505175544 | 84 | 101 | 4.0 | 6.0 | 0.00 | 0.00 | 0.00 | 82 | 1003.2 |
| 20260505175041 | 85 | 166 | 1.0 | 2.0 | 0.00 | 0.00 | 0.00 | 81 | 1003.2 |
| 20260505174538 | 84 | 176 | 2.0 | 3.0 | 0.00 | 0.00 | 0.00 | 81 | 1003.4 |
| 20260505174033 | 84 | 196 | 2.0 | 4.0 | 0.00 | 0.00 | 0.00 | 83 | 1003.3 |
| 20260505173531 | 84 | 188 | 4.0 | 6.0 | 0.00 | 0.00 | 0.00 | 82 | 1003.5 |
| 20260505173028 | 83 | 86 | 2.0 | 3.0 | 0.00 | 0.00 | 0.00 | 83 | 1003.7 |
| 20260505172525 | 83 | 174 | 1.0 | 3.0 | 0.00 | 0.00 | 0.00 | 84 | 1003.8 |
| 20260505172021 | 83 | 148 | 3.0 | 3.0 | 0.00 | 0.00 | 0.00 | 84 | 1003.8 |
| 20260505171516 | 82 | 194 | 1.0 | 2.0 | 0.00 | 0.00 | 0.00 | 86 | 1003.8 |
| 20260505171013 | 82 | 174 | 2.0 | 2.0 | 0.00 | 0.00 | 0.00 | 85 | 1003.7 |
| 20260505170505 | 82 | 184 | 2.0 | 2.0 | 0.00 | 0.00 | 0.00 | 85 | 1003.9 |
| 20260505170000 | 83 | 171 | 2.0 | 2.0 | 0.00 | 0.00 | 0.00 | 84 | 1004.2 |
| 20260505165456 | 83 | 111 | 2.0 | 3.0 | 0.00 | 0.00 | 0.00 | 84 | 1004.1 |
| 20260505164952 | 82 | 188 | 2.0 | 2.0 | 0.00 | 0.00 | 0.00 | 86 | 1004.1 |
| 20260505164448 | 82 | 156 | 1.0 | 3.0 | 0.00 | 0.00 | 0.00 | 85 | 1004.1 |
| 20260505163946 | 83 | 359 | 2.0 | 2.0 | 0.00 | 0.00 | 0.00 | 84 | 1003.9 |
| 20260505163445 | 82 | 191 | 2.0 | 3.0 | 0.00 | 0.00 | 0.00 | 84 | 1004.2 |
| 20260505162944 | 82 | 123 | 2.0 | 3.0 | 0.00 | 0.00 | 0.00 | 85 | 1004.0 |
| 20260505162439 | 82 | 182 | 4.0 | 6.0 | 0.00 | 0.00 | 0.00 | 84 | 1003.9 |
| 20260505161936 | 82 | 178 | 0.0 | 0.0 | 0.00 | 0.00 | 0.00 | 83 | 1003.7 |
| 20260505161433 | 83 | 190 | 2.0 | 3.0 | 0.00 | 0.00 | 0.00 | 81 | 1004.0 |
| 20260505160930 | 85 | 104 | 5.0 | 8.0 | 0.00 | 0.00 | 0.00 | 80 | 1003.7 |
| 20260505160429 | 85 | 122 | 6.0 | 9.0 | 0.00 | 0.00 | 0.00 | 79 | 1003.7 |
| 20260505152904 | 82 | 193 | 1.0 | 2.0 | 0.00 | 0.00 | 0.00 | 83 | 1003.6 |
| 20260505152401 | 81 | 69 | 5.0 | 8.0 | 0.00 | 0.00 | 0.00 | 83 | 1003.8 |
| 20260505151855 | 81 | 211 | 0.0 | 0.0 | 0.00 | 0.00 | 0.00 | 85 | 1003.6 |
| 20260505151352 | 81 | 150 | 3.0 | 4.0 | 0.00 | 0.00 | 0.00 | 84 | 1003.5 |
| 20260505150849 | 80 | 184 | 2.0 | 2.0 | 0.00 | 0.00 | 0.00 | 85 | 1003.7 |
| 20260505150346 | 80 | 67 | 4.0 | 4.0 | 0.00 | 0.00 | 0.00 | 85 | 1003.6 |
| 20260505140310 | 78 | 198 | 2.0 | 3.0 | 0.00 | 0.00 | 0.00 | 89 | 1003.7 |
| 20260505130234 | 77 | 163 | 0.0 | 1.0 | 0.00 | 0.00 | 0.00 | 93 | 1003.8 |
| 20260505124725 | 77 | 196 | 0.0 | 0.0 | 0.00 | 0.00 | 0.00 | 94 | 1003.6 |
| 20260505124222 | 77 | 197 | 1.0 | 2.0 | 0.00 | 0.00 | 0.00 | 94 | 1003.6 |
| 20260505123717 | 76 | 217 | 1.0 | 2.0 | 0.00 | 0.00 | 0.00 | 95 | 1003.3 |
| 20260505123214 | 76 | 164 | 1.0 | 3.0 | 0.00 | 0.00 | 0.00 | 95 | 1003.4 |
| 20260505122711 | 76 | 209 | 0.0 | 1.0 | 0.00 | 0.00 | 0.00 | 95 | 1003.6 |
| 20260505122208 | 76 | 188 | 1.0 | 2.0 | 0.00 | 0.00 | 0.00 | 96 | 1003.4 |
| 20260505121704 | 76 | 221 | 0.0 | 0.0 | 0.00 | 0.00 | 0.00 | 96 | 1003.4 |
| 20260505121201 | 76 | 194 | 1.0 | 1.0 | 0.00 | 0.00 | 0.00 | 96 | 1003.5 |
| 20260505120657 | 76 | 313 | 1.0 | 1.0 | 0.00 | 0.00 | 0.00 | 96 | 1003.4 |
| 20260505120153 | 76 | 320 | 1.0 | 1.0 | 0.00 | 0.00 | 0.00 | 96 | 1003.1 |
| 20260505115647 | 76 | 320 | 0.0 | 0.0 | 0.00 | 0.00 | 0.00 | 96 | 1003.2 |
| 20260505115145 | 76 | 320 | 0.0 | 0.0 | 0.00 | 0.00 | 0.00 | 95 | 1003.0 |
| 20260505114642 | 76 | 320 | 2.0 | 4.0 | 0.00 | 0.00 | 0.00 | 95 | 1003.2 |
| 20260505114138 | 76 | 320 | 0.0 | 0.0 | 0.00 | 0.00 | 0.00 | 95 | 1003.1 |
| 20260505113635 | 76 | 320 | 1.0 | 1.0 | 0.00 | 0.00 | 0.00 | 95 | 1003.1 |
| 20260505113131 | 75 | 320 | 1.0 | 1.0 | 0.00 | 0.00 | 0.00 | 95 | 1003.0 |
| 20260505112627 | 75 | 313 | 2.0 | 4.0 | 0.00 | 0.00 | 0.00 | 95 | 1003.2 |
| 20260505112126 | 75 | 303 | 2.0 | 3.0 | 0.00 | 0.00 | 0.00 | 95 | 1002.9 |
| 20260505111620 | 75 | 274 | 1.0 | 1.0 | 0.00 | 0.00 | 0.00 | 95 | 1003.1 |
| 20260505111116 | 75 | 25 | 2.0 | 3.0 | 0.00 | 0.00 | 0.00 | 95 | 1003.1 |
| 20260505110612 | 75 | 232 | 1.0 | 2.0 | 0.00 | 0.00 | 0.00 | 95 | 1003.2 |
| 20260505110109 | 75 | 188 | 0.0 | 0.0 | 0.00 | 0.00 | 0.00 | 96 | 1003.0 |
| 20260505102045 | 74 | 192 | 0.0 | 0.0 | 0.00 | 0.00 | 0.00 | 97 | 1003.5 |
| 20260505101543 | 74 | 204 | 1.0 | 2.0 | 0.00 | 0.00 | 0.00 | 97 | 1003.3 |
| 20260505101039 | 74 | 189 | 1.0 | 1.0 | 0.00 | 0.00 | 0.00 | 97 | 1003.2 |
| 20260505100536 | 74 | 206 | 1.0 | 2.0 | 0.00 | 0.00 | 0.00 | 97 | 1003.2 |
| 20260505100033 | 74 | 108 | 2.0 | 4.0 | 0.00 | 0.00 | 0.00 | 97 | 1003.1 |
| 20260505095529 | 74 | 151 | 2.0 | 3.0 | 0.00 | 0.00 | 0.00 | 97 | 1003.3 |
| 20260505095026 | 74 | 200 | 0.0 | 1.0 | 0.00 | 0.00 | 0.00 | 97 | 1003.4 |
| 20260505094522 | 74 | 212 | 0.0 | 0.0 | 0.00 | 0.00 | 0.00 | 97 | 1003.4 |
| 20260505094019 | 74 | 182 | 1.0 | 1.0 | 0.00 | 0.00 | 0.00 | 97 | 1003.3 |
| 20260505093515 | 74 | 203 | 0.0 | 1.0 | 0.00 | 0.00 | 0.00 | 97 | 1003.6 |
| 20260505093013 | 74 | 187 | 0.0 | 0.0 | 0.00 | 0.00 | 0.00 | 97 | 1003.5 |
| 20260505092510 | 74 | 198 | 1.0 | 1.0 | 0.00 | 0.00 | 0.00 | 96 | 1003.6 |
| 20260505092008 | 74 | 202 | 0.0 | 0.0 | 0.00 | 0.00 | 0.00 | 96 | 1003.6 |
| 20260505091505 | 74 | 190 | 0.0 | 1.0 | 0.00 | 0.00 | 0.00 | 96 | 1003.6 |
| 20260505091003 | 74 | 99 | 0.0 | 2.0 | 0.00 | 0.00 | 0.00 | 96 | 1003.6 |
| 20260505090501 | 74 | 205 | 0.0 | 0.0 | 0.00 | 0.00 | 0.00 | 96 | 1003.5 |
| 20260505085958 | 74 | 200 | 0.0 | 0.0 | 0.00 | 0.00 | 0.00 | 96 | 1003.7 |
| 20260505085456 | 74 | 205 | 1.0 | 2.0 | 0.00 | 0.00 | 0.00 | 96 | 1003.6 |
| 20260505084954 | 74 | 191 | 0.0 | 0.0 | 0.00 | 0.00 | 0.00 | 96 | 1003.6 |
| 20260505084452 | 74 | 89 | 1.0 | 3.0 | 0.00 | 0.00 | 0.00 | 96 | 1003.4 |
| 20260505083949 | 74 | 198 | 0.0 | 0.0 | 0.00 | 0.00 | 0.00 | 96 | 1003.6 |
| 20260505083446 | 74 | 199 | 0.0 | 0.0 | 0.00 | 0.00 | 0.00 | 96 | 1003.9 |
| 20260505082942 | 74 | 190 | 2.0 | 3.0 | 0.00 | 0.00 | 0.00 | 96 | 1003.9 |
| 20260505082438 | 74 | 181 | 2.0 | 3.0 | 0.00 | 0.00 | 0.00 | 96 | 1003.8 |
| 20260505081936 | 74 | 186 | 0.0 | 0.0 | 0.00 | 0.00 | 0.00 | 96 | 1004.0 |
| 20260505081432 | 74 | 174 | 1.0 | 2.0 | 0.00 | 0.00 | 0.00 | 96 | 1004.1 |
| 20260505080929 | 74 | 194 | 1.0 | 1.0 | 0.00 | 0.00 | 0.00 | 96 | 1003.9 |
| 20260505080425 | 74 | 202 | 0.0 | 0.0 | 0.00 | 0.00 | 0.00 | 95 | 1004.1 |
| 20260505075920 | 74 | 170 | 2.0 | 4.0 | 0.00 | 0.00 | 0.00 | 96 | 1004.1 |
| 20260505075418 | 74 | 199 | 0.0 | 0.0 | 0.00 | 0.00 | 0.00 | 95 | 1004.1 |
| 20260505074915 | 74 | 189 | 3.0 | 4.0 | 0.00 | 0.00 | 0.00 | 95 | 1003.9 |
| 20260505074412 | 74 | 184 | 1.0 | 2.0 | 0.00 | 0.00 | 0.00 | 95 | 1004.1 |